NOAA NWS Hourly Roundups by Site

Regional Weather Roundup for Bismarck, ND

To Select Another Site Choose from List

Select Site:  

000
ASUS43 KBIS 310110
RWRBIS

NWR BROADCAST TEXT
NATIONAL WEATHER SERVICE BISMARCK ND
800 PM CDT FRI JUL 30 2021

NOTE: "FAIR" INDICATES FEW OR NO CLOUDS BELOW 12,000 FEET WITH NO
SIGNIFICANT WEATHER AND/OR OBSTRUCTIONS TO VISIBILITY.


CITY           SKY/WX    TMP DP  RH WIND       PRES   REMARKS
WILLISTON      SUNNY     88  45  22 N15       30.13R
MINOT          SUNNY     88  57  34 NW10      30.03S
MINOT AFB      SUNNY     87  31  13 N12       30.02S
BISMARCK       MOSUNNY   85  63  47 SW9       30.06F SMOKE
DICKINSON      SUNNY     87  52  29 NE3       30.09S HAZE
GARRISON         N/A     87  54  32 W7        30.05S
HETTINGER ARPT SUNNY     84  56  38 SE6       30.13S HAZE
JAMESTOWN      CLOUDY    81  60  48 SW8       30.05F HAZE
CARRINGTON     FAIR      81  61  50 SW9       30.06F HAZE
HAZEN          FAIR      86  57  37 NW6       30.07S
MANDAN         SUNNY     82  63  51 SW8G14    30.08S HAZE
OAKES          FAIR      72  64  78 S10       30.08F HAZE
RUGBY          FAIR      86  57  37 NW9       30.01S
STANLEY        FAIR      84  52  32 N14       30.10S
TIOGA          FAIR      86  46  25 N13       30.12S
WATFORD CITY   FAIR      88  55  33 N13G18    30.09S
$$

CITY           SKY/WX    TMP DP  RH WIND       PRES   REMARKS
GRAND FORKS    CLOUDY    81  54  39 SW7       29.97F HAZE
GRAND FORKS AF CLOUDY    81  57  44 SW7       29.98F SMOKE
DEVILS LAKE    SUNNY     83  60  45 SW6       30.01F HAZE
FARGO          PTCLDY    77  57  50 SW13      30.03F HAZE
CANDO          FAIR      84  61  45 N9        30.02S HAZE
CAVALIER       HAZE      84  55  37 SW7       29.94F VSB 1
GRAFTON        FAIR      82  59  44 SW8         N/A  HAZE
GWINNER        CLEAR     73  70  88 SW9       30.07F FOG
LANGDON        FAIR      81  66  61 NW7       30.01S
ROLLA          CLOUDY    79  59  50 N9        30.04S
WALHALLA       FAIR      84  86 100 NW8       29.95S HX 104
$$

CITY           SKY/WX    TMP DP  RH WIND       PRES   REMARKS
ABERDEEN       CLEAR     73  62  68 S6        30.10F HAZE
MOBRIDGE       CLOUDY    77  61  57 SW8       30.09S HAZE
BUFFALO          N/A     86  52  30 E10       30.11R
RAPID CITY     MOSUNNY   73  61  65 NE6       30.17R SMOKE
GLASGOW        SUNNY     93  40  15 E18       30.11S
WOLF POINT     SUNNY     92  39  15 NE13      30.11R
GLENDIVE       MOSUNNY   91  52  26 E8        30.11S
MILES CITY     SUNNY     92  49  22 NE10      30.09S
BAKER          SUNNY     88  48  25 NE8       30.13F
$$

CITY           SKY/WX    TMP DP  RH WIND       PRES   REMARKS
BILLINGS       MOSUNNY   92  47  21 NE12      30.15S
GREAT FALLS    SUNNY     92  44  19 NE9       30.16S
REGINA         MOSUNNY   82  50  32 N14G21    30.13S
ESTEVAN        SUNNY     84  48  28 N14G20    30.09S
$$



 

View Past Reports for Bismarck, ND.

Products Courtesy of NOAA-NWS
NWS Information Parsing Script by Ken True at Saratoga Weather - Script by SE Lincoln Weather.